レモン彗星

C/2023 TD22 ( Lemmon )

English version
Home page
Updated on September 4, 2024

---------------------------------------------------------------------

・ プロフィール

発見日 2023年10月12日
発見光度 21.5等
発見者 Mt. Lemmon Survey

・ 写真集

・ 軌道要素

Epoch 2024 Oct. 17.0 TT = JDT 2460600.5
T 2024 Sept. 16.29334 TT                                Rudenko
q   2.3568107            (2000.0)            P               Q
z  +0.0207693      Peri.   32.53493     +0.89046000     -0.45478024
 +/-0.0000007      Node     5.55629     -0.44482001     -0.86246510
e   0.9510506      Incl.  170.48970     -0.09600078     -0.22210109
>From 301 observations 2023 Sept. 26-2024 Aug. 30, mean residual 0".3.

・ 光度変化

        m1 = 11.8 + 5 logΔ + 10.0 log r

---------------------------------------------------------------------

軌道要素はM.P.E.C. 2024-R10に掲載されたものです。
光度グラフはComet for Windowsで作成したものです。

---------------------------------------------------------------------

Copyright(C) Seiichi Yoshida (comet@aerith.net). All rights reserved.